Miscellaneous Local Product
Issued by NWS North Platte, NE

Home | Current Version | Previous Version | Graphics & Text | Print | Product List | Glossary On
Versions: 1 2 3 4 5 6 7 8 9 10 11 12 13 14 15 16 17 18 19 20 21 22 23 24 25 26 27 28 29 30 31 32 33 34 35 36 37 38 39 40 41 42 43 44 45 46 47 48 49 50
000
AXUS43 KLBF 031510
MISLBF


WESTERN AND NORTH CENTRAL NEBRASKA HOURLY WEATHER ROUNDUP
NATIONAL WEATHER SERVICE NORTH PLATTE NE
1000 AM CDT SUN MAY 03 2015

***STATIONS NOT REPORTING VARIABLES SUCH AS SKY/WEATHER OR
PRESSURE ARE PROVIDED BY THE NEBRASKA DEPARTMENT OF
ROADS...RAWS...AND APRS NETWORKS...AND ARE NOT UNDER
NATIONAL WEATHER SERVICE QUALITY CONTROL***

...OBSERVATIONS IN AND NEAR THE EASTERN PANHANDLE OF NEBRASKA...

CITY           SKY/WX    TMP DP  RH WIND       PRES   REMARKS
PINE RIDGE     SUNNY     57  36  45 N12       29.93R
CHADRON        SUNNY     58  38  47 NE14G25   29.95R
ALLIANCE       MOSUNNY   59  37  44 N21       29.89R
SIDNEY         MOSUNNY   65  42  43 NW17G23   29.90R
WHITECLAY        N/A     56  35  46 NE17        N/A
CRESCENT LAKE    N/A     60  38  45 N14G23      N/A
BIG SPRINGS      N/A     67  48  51 W12         N/A
$$

...OBSERVATIONS IN NORTH CENTRAL NEBRASKA...

CITY           SKY/WX    TMP DP  RH WIND       PRES   REMARKS
VALENTINE      PTSUNNY   58  38  47 N16G28    29.81R
THEDFORD       PTSUNNY   66  44  44 NW10G18   29.80R
AINSWORTH      PTSUNNY   66  47  50 N22G28    29.78R
O`NEILL        SUNNY     68  51  53 NW8       29.73R
ORD            MOSUNNY   70  47  43 NW3       29.72S
BROKEN BOW     MOSUNNY   76  44  32 NW9       29.75S
BROWNLEE         N/A     67  44  43 W21         N/A
VALENTINE NWR    N/A     62  43  49 N14         N/A
SPRINGVIEW       N/A     64  49  58 W9G17       N/A
HALSEY           N/A     68  44  41 W6          N/A
BREWSTER         N/A     74  49  40 NW16        N/A
ROSE             N/A     76  52  42 W8          N/A
NEWPORT          N/A     69  51  53 NW14        N/A
SARGENT          N/A     72  48  42 W5G12       N/A
COMSTOCK         N/A     76  51  41 W6          N/A
EWING            N/A     70  57  62 S5          N/A
$$

...OBSERVATIONS IN SOUTHWEST NEBRASKA AND FAR NORTHEAST COLORADO...

CITY           SKY/WX    TMP DP  RH WIND       PRES   REMARKS
WRAY           FAIR      73  44  36 NW16      29.86F
IMPERIAL       SUNNY     74  42  31 NW15      29.83R
OGALLALA       MOSUNNY   70  44  39 W13G20    29.83R
NORTH PLATTE   MOSUNNY   68  47  46 W13       29.79S
MCCOOK         SUNNY     69  46  43 SW7       29.81F
LEXINGTON      SUNNY     71  49  44 W8        29.78S
PAXTON           N/A     68  47  46 W10         N/A
SUTHERLAND       N/A     71  47  42 W14         N/A
GOTHENBURG       N/A     71  43  36 W5          N/A
CALLAWAY         N/A     73  50  43 W13         N/A
$$

...NORTH PLATTE AREA...

CITY           SKY/WX    TMP DP  RH WIND       PRES   REMARKS
AIRPORT        MOSUNNY   68  47  46 W13       29.79S
DOWNTOWN         N/A     69  47  45 NW5G12      N/A
$$

...SOME WEATHER OBSERVATIONS FROM AROUND THE REGION...

CITY           SKY/WX    TMP DP  RH WIND       PRES   REMARKS
DENVER         PTSUNNY   65  41  41 SW13      29.97R
LARAMIE        SUNNY     53  33  46 E5        30.05R
CHEYENNE       MOSUNNY   63  33  32 NW15G22   29.99R
SCOTTSBLUFF    SUNNY     66  39  37 N14       29.91R
RAPID CITY     SUNNY     58  37  45 N18       29.97R
PIERRE         MOSUNNY   63  35  35 N33G40    29.85R
WINNER         FAIR      65  40  39 N20       29.81R
SIOUX FALLS    MOSUNNY   69  54  58 S7        29.75S
OMAHA          PTSUNNY   70  59  68 S13       29.75S
GRAND ISLAND   PTSUNNY   67  52  58 SW7       29.76R
KANSAS CITY    PTSUNNY   70  56  61 S20       29.86S
WICHITA        PTSUNNY   70  55  59 S21       29.86R
HAYS           MOSUNNY   77  52  41 SW5       29.81F
LIBERAL        MOSUNNY   70  46  43 W6        29.89S
GOODLAND       MOSUNNY   69  48  47 W6        29.88R
$$



USA.gov is the U.S. government's official web portal to all federal, state and local government web resources and services.